Regional Weather Roundup
Issued by NWS Columbia, SC

Home | Current Version | Previous Version | Text Only | Print | Product List | Glossary On
Versions: 1 2 3 4 5 6 7 8 9 10 11 12 13 14 15 16 17 18 19 20 21 22 23 24 25 26 27 28 29 30 31 32 33 34 35 36 37 38 39 40 41 42 43 44 45 46 47 48 49 50
000
ASUS42 KCAE 171110
RWRCAE
REGIONAL WEATHER ROUNDUP
NATIONAL WEATHER SERVICE COLUMBIA SC
700 AM EDT TUE OCT 17 2017

NOTE: "FAIR" INDICATES FEW OR NO CLOUDS BELOW 12,000 FEET WITH NO
SIGNIFICANT WEATHER AND/OR OBSTRUCTIONS TO VISIBILITY.

NOT ALL STATIONS ARE QUALITY CONTROLLED BY THE NATIONAL
WEATHER SERVICE. USE DATA WITH CAUTION...ESPECIALLY
DEWPOINT OBSERVATIONS.

SCZ001>056-GAZ040-063>065-077-171200-
...UPSTATE SOUTH CAROLINA...

CITY           SKY/WX    TMP DP  RH WIND       PRES   REMARKS
ANDERSON       CLEAR     47  40  76 N3        30.31R
LIBERTY        SUNNY     39  39 100 CALM      30.30R
SPARTANBURG    CLEAR     45  37  76 N5        30.31R
CLEMSON        CLEAR     47  41  80 N3        30.32R
GREENVILLE     CLEAR     47  38  71 N8        30.31R
GREENWOOD      CLOUDY    47  41  80 NE7       30.31R
GREER          CLEAR     47  39  74 N5        30.31R
ROCK HILL      CLEAR     49  42  77 NE7       30.30R
CHESTER        SUNNY     45  41  87 N7        30.30R
LAURENS        CLOUDY    43  41  93 N6        30.30R


...CENTRAL SOUTH CAROLINA...

CITY           SKY/WX    TMP DP  RH WIND       PRES   REMARKS
COLUMBIA APT   CLOUDY    51  42  71 N5        30.27R
COLUMBIA OWENS CLOUDY    53  39  59 CALM      30.28R
MCENTIRE ANGB  MOCLDY    50  41  71 N8        30.26R
ORANGEBURG     PTCLDY    51  42  71 NE9       30.25R
SUMTER SHAW    PTCLDY    47  41  79 NE9       30.24R
NEWBERRY       CLOUDY    45  41  87 N8        30.32R
AIKEN          FAIR      46  41  81 N5        30.30R
BARNWELL         N/A     52  45  76 N6        30.25R
MANNING        DRZL/FOG  50  46  87 MISG      30.25R VSB 1/4
CAMDEN         FAIR      48  41  76 N8        30.28R
LANCASTER        N/A     46  41  81 NE6       30.30R
WINNSBORO      MOSUNNY   46  41  81 N5        30.28R


...EASTERN AND COASTAL SOUTH CAROLINA...

CITY           SKY/WX    TMP DP  RH WIND       PRES   REMARKS
MYRTLE BEACH   CLOUDY    53  43  68 N14       30.23R
N MYRTLE BCH   PTCLDY    54  41  61 NE15      30.21R
CONWAY         FAIR      50  45  81 N9        30.24R
MARION         FAIR     N/A N/A N/A N6        30.26R
HARTSVILLE     FAIR      46  39  76 N9        30.27R
FLORENCE       MOCLDY    48  44  86 N9        30.27R
DARLINGTON     PTCLDY    48  43  82 N7        30.28R
CHARLESTON APT CLOUDY    55  47  74 NE14      30.21R
MOUNT PLEASANT FAIR      55  46  71 N8        30.20S
WALTERBORO     CLOUDY    52  46  82 N5        30.24R
BEAUFORT       CLOUDY    57  52  83 N7        30.21R


...EASTERN GEORGIA...

CITY           SKY/WX    TMP DP  RH WIND       PRES   REMARKS
AUGUSTA BUSH F CLOUDY    51  44  77 N7        30.26R
AUGUSTA DANIEL MOCLDY    51  43  74 N7        30.27R
THOMSON        CLOUDY    52  42  68 E5        30.32R
WASHINGTON     FAIR      48  41  76 NE6       30.28R
CLAXTON        FAIR      56  47  72 N8        30.21S
SYLVANIA       MOSUNNY   53  47  82 NE6       30.24R
STATESBORO     CLOUDY    54  43  67 NE6       30.22R
SAVANNAH       CLOUDY    56  51  84 N14       30.20R


...SOUTHERN NORTH CAROLINA...

CITY           SKY/WX    TMP DP  RH WIND       PRES   REMARKS
CHARLOTTE      CLEAR     45  41  86 N8        30.31R
MONROE         CLOUDY    47  41  80 N10       30.29R
WADESBORO      MOSUNNY   40  38  92 CALM      30.30R
RUTHERFORDTON  CLEAR     41  41  99 CALM      30.34R
ASHEVILLE      CLEAR     40  37  89 N3        30.34R

$$



USA.gov is the U.S. government's official web portal to all federal, state and local government web resources and services.